Regional Weather Roundup
Issued by NWS

Home | Current Version | Previous Version | Text Only | Print | Product List | Glossary Off
Versions: 1 2 3 4 5 6 7 8 9 10 11 12 13 14 15 16 17 18 19 20 21 22 23 24 25 26 27 28 29 30 31 32 33 34 35 36 37 38 39 40 41 42 43 44 45 46 47 48 49 50

000
ASUS43 KMPX 231301
RWRMN
WEATHER ROUNDUP FOR MINNESOTA
NATIONAL WEATHER SERVICE TWIN CITIES/CHANHASSEN MN
800 AM CDT WED APR 23 2014


NOTE: "FAIR" INDICATES FEW OR NO CLOUDS BELOW 12,000 FEET WITH NO
SIGNIFICANT WEATHER AND/OR OBSTRUCTIONS TO VISIBILITY. N/A MEANS
CURRENT SKY AND/OR WEATHER CONDITIONS ARE NOT AVAILABLE.

MNZ060>063-068>070-231400-
   Twin Cities Metro

CITY           SKY/WX    TMP DP  RH WIND       PRES   REMARKS
TWIN CITIES    CLOUDY    43  28  55 SE13      30.10S
ST PAUL        CLOUDY    44  27  51 SE14      30.12R
CRYSTAL        CLOUDY    46  25  43 SE14G21   30.08S
EDEN PRAIRIE   CLOUDY    45  27  49 SE10      30.08S
LAKEVILLE      CLOUDY    41  30  65 SE7       30.10S
SOUTH ST PAUL  CLOUDY    46  28  48 SE8       30.11R
LAKE ELMO      FAIR      43  28  56 SE8       30.12R
$$
MNZ001>005-007-008-013>017-022>024-027-028-231400-
   Northwest Minnesota

CITY           SKY/WX    TMP DP  RH WIND       PRES   REMARKS
BEMIDJI        CLOUDY    37  24  59 SE8       30.02S
HALLOCK        CLOUDY    43  27  52 SE15      29.95R
ROSEAU         CLOUDY    41  25  52 SE12      30.01S
WARROAD        PTSUNNY   39  28  65 E5        30.03F
THIEF RVR FALL CLOUDY    41  25  52 E13       29.97S
CROOKSTON      CLOUDY    46  28  49 SE12      29.95S
FOSSTON        CLOUDY    45  21  39 SE14      29.97S
DETROIT LAKES  CLOUDY    43  28  56 SE10      29.97R
MOORHEAD       DRIZZLE   46  36  66 S15       29.94S
PARK RAPIDS    CLOUDY    42  25  50 SE13      30.00S
$$
MNZ006-009>011-018-025>026-231400-
   North Central Minnesota

CITY           SKY/WX    TMP DP  RH WIND       PRES   REMARKS
BAUDETTE       PTSUNNY   37  24  59 SE7       30.05S
FLAG ISLAND    MOSUNNY   36  21  55 SE6       30.05R
INTL FALLS     SUNNY     35  26  69 SE6       30.09R WCI  30
WASKISH        CLOUDY    37  25  60 E7        30.05S
BIG FORK       CLOUDY    37  25  60 SE6       30.08S
LONGVILLE      CLOUDY    36  25  64 CALM      30.05S
GRAND RAPIDS   CLOUDY    34  21  60 SE7       30.07F WCI  28
CRANE LAKE     SUNNY     27  25  93 CALM      30.13S
ORR            MOSUNNY   37  21  52 CALM      30.08R
COOK           MOSUNNY   34  25  69 CALM      30.11R
$$
MNZ012-019>021-037-231400-
   Northeast Minnesota

CITY           SKY/WX    TMP DP  RH WIND       PRES   REMARKS
DULUTH         PTSUNNY   35  25  66 SE7       30.11S WCI  29
ELY            SUNNY     32  25  74 CALM      30.12S
HIBBING        CLOUDY    33  27  78 CALM      30.11R
EVELETH        PTSUNNY   32  27  80 NE3       30.12S
DULUTH HARBOR  PTSUNNY   32  28  86 CALM      30.16R
TWO HARBORS    PTSUNNY   34  25  69 CALM      30.12S
SILVER BAY     MOSUNNY   34  28  80 CALM      30.13R
GRAND MARAIS     N/A     35  29  78 CALM      30.17R
G MARAIS ARPRT SUNNY     36  21  55 CALM      30.14R
$$
MNZ029>031-032-039>041-046>048-054>057-064-231400-
   West Central Minnesota

CITY           SKY/WX    TMP DP  RH WIND       PRES   REMARKS
FERGUS FALLS   LGT RAIN  43  34  70 SE17      29.95R
WHEATON        LGT RAIN  45  41  87 SE22G29   29.97R
MORRIS         DRIZZLE   41  37  87 SE18      29.98R
ALEXANDRIA     LGT RAIN  42  32  67 SE12      30.01R
ELBOW LAKE     LGT RAIN  40  36  85 SE17      29.97R
WADENA         CLOUDY    43  27  52 SE12      30.00R
GLENWOOD       LGT RAIN  41  34  75 SE13      30.01R
APPLETON       LGT RAIN  43  37  81 SE17      29.97R
BENSON         RAIN      41  37  87 S13       30.01R
ORTONVILLE     RAIN      43  37  81 E20       29.92F
MADISON        LGT RAIN  46  39  76 SE17G24   29.95S
WILLMAR        HVY RAIN  43  36  75 SE18G25   30.02S
$$
MNZ033>034-036-042>043-049>051-058-059-231400-
   Central Minnesota

CITY           SKY/WX    TMP DP  RH WIND       PRES   REMARKS
ST CLOUD       CLOUDY    45  26  47 SE15      30.05F
SAUK CENTRE    DRIZZLE   42  29  59 SE12      30.02R
PAYNESVILLE    LGT RAIN  42  31  63 SE14      30.03S
AITKIN         CLOUDY    43  28  56 SE6       30.05F
PINE RIVER     CLOUDY    37  27  65 SE8       30.07S
BRAINERD       CLOUDY    46  26  45 SE9       30.05S
STAPLES        CLOUDY    43  25  49 SE8       30.02S
LONG PRAIRIE   FAIR      43  27  52 SE9       30.02S
LITTLE FALLS   CLOUDY    41  27  56 SE8       30.04S
LITCHFIELD     DRIZZLE   45  34  65 SE13G20   30.04F
BUFFALO        CLOUDY    44  27  51 SE13G18   30.08S
MAPLE LAKE     CLOUDY    45  31  58 SE9       30.07S
$$
MNZ037-044-045-052-053-231400-
   East Central Minnesota

CITY           SKY/WX    TMP DP  RH WIND       PRES   REMARKS
PRINCETON      CLOUDY    45  28  53 E7        30.08F
MORA           CLOUDY    36  28  75 CALM      30.11R
CAMBRIDGE      CLOUDY    45  28  53 SE6       30.07S
RUSH CITY      CLOUDY    37  27  65 CALM      30.10S
MOOSE LAKE     CLOUDY    32  27  80 NE3       30.09S
HINCKLEY       FAIR      36  30  80 CALM      30.11R
CLOQUET        CLOUDY    32  27  80 E3        30.11S
MCGREGOR       CLOUDY    36  28  75 SE6       30.09S
$$
MNZ071>073-080-081-089-090-097-098-231400-
   Southwest Minnesota

CITY           SKY/WX    TMP DP  RH WIND       PRES   REMARKS
MONTEVIDEO     CLOUDY    43  37  81 S13G21    30.00R
GRANITE FALLS  LGT RAIN  43  35  74 E15G22    29.99S
CANBY          CLOUDY    45  38  78 SE16G25   29.92F
MARSHALL       CLOUDY    45  34  65 SE20G28   29.93S
REDWOOD FALLS  LGT RAIN  44  36  73 SE14      30.00S
OLIVIA         DRIZZLE   43  36  75 SE16      30.00S
PIPESTONE      DRIZZLE   45  37  76 SE20G30   29.88R
WINDOM         LGT RAIN  46  30  53 SE17G24   29.99F
WORTHINGTON    CLOUDY    45  30  57 SE22G30   29.94F
JACKSON        CLOUDY    46  30  53 SE15      30.02R
TRACY          RAIN      45  36  69 SE17G28   29.96S
SLAYTON        LGT RAIN  43  37  80 SE18G26   29.95R
$$
MNZ065>067-074>077-082>085-091>093-231400-
   South Central Minnesota

CITY           SKY/WX    TMP DP  RH WIND       PRES   REMARKS
MANKATO        CLOUDY    43  32  65 SE18      30.06F
NEW ULM        CLOUDY    45  34  65 SE16      30.03S
ST JAMES       CLOUDY    46  34  61 SE15      30.05S
FAIRMONT       CLOUDY    45  28  53 SE18      30.05F
GLENCOE        LGT RAIN  44  31  61 SE10      30.06S
FARIBAULT      CLOUDY    46  27  46 SE14      30.11R
OWATONNA       CLOUDY    43  28  56 SE15      30.10R
WASECA         DRIZZLE   41  28  60 SE12      30.10F
ALBERT LEA     DRIZZLE   43  30  61 SE14G22   30.07F
$$
MNZ078>079-086>088-094>096-231400-
   Southeast Minnesota

CITY           SKY/WX    TMP DP  RH WIND       PRES   REMARKS
ROCHESTER      PTSUNNY   41  29  62 SE13      30.11S
RED WING       CLOUDY    45  28  53 SE8       30.12R
STANTON        CLOUDY    43  28  56 SE9       30.10R
DODGE CENTER   CLOUDY    45  28  53 SE14      30.10S
WINONA         PTSUNNY   41  32  70 SE5       30.16R
AUSTIN         CLOUDY    43  30  61 SE7       30.11R
PRESTON        PTSUNNY   42  29  60 SE9       30.14R
$$
ABBREVIATIONS USED IN REMARKS
   TC - TEMPERATURES IN CELSIUS
  WCI - WIND CHILL INDEX
   HX - HEAT INDEX
  VSB - VISIBILITY
$$


USA.gov is the U.S. government's official web portal to all federal, state and local government web resources and services.